Regional Weather Roundup
Issued by NWS

Home | Current Version | Previous Version | Text Only | Print | Product List | Glossary Off
Versions: 1 2 3 4 5 6 7 8 9 10 11 12 13 14 15 16 17 18 19 20 21 22 23 24 25 26 27 28 29 30 31 32 33 34 35 36 37 38 39 40 41 42 43 44 45 46 47 48 49 50

000
ASUS45 KTFX 020619
RWRMT
MONTANA REGIONAL WEATHER ROUNDUP
NATIONAL WEATHER SERVICE GREAT FALLS MT
1200 AM MDT WED SEP 02 2015

NOTE: "FAIR" INDICATES FEW OR NO CLOUDS BELOW 12000 FEET WITH NO
SIGNIFICANT WEATHER AND/OR OBSTRUCTIONS TO VISIBILITY.

MTZ001>007-043-020700-
WEST OF THE DIVIDE

CITY           SKY/WX    TMP DP  RH WIND       PRES   REMARKS
KALISPELL      CLOUDY    54  39  57 SE3       29.75F
MISSOULA       PTCLDY    61  38  42 N5        29.78R
BUTTE          CLEAR     54  36  50 SE7       29.90S
MULLAN PASS    CLOUDY    53  30  41 SW6       29.90S
DEER LODGE       N/A     50  36  57 CALM      29.88R
EUREKA           N/A     57  43  58 CALM        N/A
HAMILTON         N/A     59  41  51 S6        29.79R
LIBBY            N/A     57  36  44 CALM      29.74S
PLAINS           N/A     56  35  45 CALM      29.78F
RONAN            N/A     54  41  61 CALM      29.84S
THOMPSON FALLS   N/A     58  39  49 CALM      29.82S
$$

MTZ008-052>055-020700-
SOUTHWEST MONTANA

CITY           SKY/WX    TMP DP  RH WIND       PRES   REMARKS
BOZEMAN        PTCLDY    59  37  44 SE9       29.82R
DILLON         CLEAR     62  28  27 SW10      29.87R
W YELLOWSTONE  MOCLDY    46  27  46 CALM      30.05R
THREE FORKS      N/A     62  29  29 CALM      29.82S
TWIN BRIDGES     N/A     63  28  26 SE7       29.87R
$$

MTZ009-010-012-014-046-048-049-054-020700-
EAST SLOPES AND CENTRAL MONTANA

CITY           SKY/WX    TMP DP  RH WIND       PRES   REMARKS
CUT BANK       MOCLDY    57  30  35 SW5       29.76F
GREAT FALLS    MOCLDY    67  32  27 E9        29.76F
MALMSTROM AFB  MOCLDY    63  33  32 S7        29.76F
HELENA         PTCLDY    62  34  35 W7        29.77F
CONRAD           N/A     48  33  56 SE3       29.81F
$$

MTZ011-013-016-021-045-047-050-051-020700-
NORTH CENTRAL MONTANA

CITY           SKY/WX    TMP DP  RH WIND       PRES   REMARKS
HAVRE          PTCLDY    55  36  48 N3        29.72R
LEWISTOWN      PTCLDY    65  38  36 E14       29.82F
N BAR RANCH      N/A     55  37  50 W6        29.89S
CHINOOK          N/A     61  39  44 E5        29.72S
FORT BENTON      N/A     64  34  32 NW5       29.73F
$$

MTZ017>020-022>027-061-062-020700-
NORTHEAST MONTANA

CITY           SKY/WX    TMP DP  RH WIND       PRES   REMARKS
GLASGOW        CLEAR     60  41  49 E9        29.75F
JORDAN           N/A     56  34  43 CALM      29.78S
SIDNEY         CLEAR     61  39  44 NW6       29.78S
WOLF POINT     CLEAR     58  44  60 E6        29.77S
MALTA            N/A     54  39  56 CALM      29.72F
PLENTYWOOD       N/A     64  39  39 NE7       29.79S
POPLAR           N/A     64  43  45 NE7       29.77F
SCOBEY           N/A     54  39  56 W2        29.80S
$$

MTZ028>42-056>058-020700-
SOUTHCENTRAL AND SOUTHEAST MONTANA

CITY           SKY/WX    TMP DP  RH WIND       PRES   REMARKS
BAKER          CLEAR     62  51  67 SE5       29.83F
BILLINGS       CLEAR     68  30  24 N3        29.79F
LIVINGSTON     PTCLDY    69  27  20 S7        29.84F
MILES CITY     CLEAR     65  37  35 NE8       29.77S
EKALAKA          N/A     69  50  50 SE7       29.85S
FORSYTH          N/A     70  34  26 E6        29.76S
LAUREL           N/A     66  31  27 W2        29.80S
ROUNDUP          N/A     66  32  28 MISG      29.73F
$$

REGIONAL REPORTS...DAKOTAS

CITY           SKY/WX    TMP DP  RH WIND       PRES   REMARKS
WILLISTON      CLEAR     60  42  51 NE3       29.79S
MINOT            N/A     67  60  78 SE7       29.76F
DICKINSON      CLEAR     64  55  72 S8        29.80S
BEACH            N/A     57  48  72 CALM      29.83S
CROSBY           N/A     54  50  87 S3        29.80S
BISMARCK       CLEAR     70  66  87 E5        29.79S
GRAND FORKS      N/A     68  58  70 SE6       29.82S
FARGO            N/A     73  69  87 SE7       29.83S
BUFFALO SD       N/A     69  54  58 S6        29.79S
RAPID CITY     CLEAR     62  53  72 NW7       29.87F
$$

REGIONAL REPORTS...WYOMING/IDAHO/WASHINGTON

CITY           SKY/WX    TMP DP  RH WIND       PRES   REMARKS
GILLETTE       PTCLDY    66  33  29 S10       29.89F
SHERIDAN       CLEAR     62  38  40 N6        29.83F
BUFFALO WY     PTCLDY    71  30  21 SE7       29.93F
CODY           CLEAR     72  30  21 SW10      29.92S
YELLOWSTONE LA   N/A     43  30  60 CALM      30.17S
IDAHO FALLS    CLEAR     57  44  62 CALM      29.91R
SALMON         CLEAR     55  34  44 CALM      29.80R
BOISE          CLEAR     73  38  27 S8        29.73S
SPOKANE        CLOUDY    64  44  48 S6        29.74F
$$

REGIONAL REPORTS...ALBERTA

CITY           SKY/WX    TMP DP  RH WIND       PRES   REMARKS
EDMONTON       CLOUDY    50  45  81 E9        29.66
CALGARY        MOCLDY    59  36  41 SW8       29.64F
LETHBRIDGE     PTCLDY    54  37  54 S8        29.70F
MEDICINE HAT   CLEAR     57  41  54 VRB2      29.68F
WATERTON GATE    N/A     48  36  61 NE6         N/A
CARDSTON         N/A     54  34  47 E1          N/A
MILK RIVER       N/A     55  36  47 SE1         N/A
ONEFOUR          N/A     57  28  33 E8          N/A
$$

REGIONAL REPORTS...SASKATCHEWAN

CITY           SKY/WX    TMP DP  RH WIND       PRES   REMARKS
SWIFT CURRENT  CLEAR     52  39  62 SE10      29.74F
REGINA         PTCLDY    54  46  76 SE9       29.77R
SASKATOON      PTCLDY    55  45  67 N6        29.75S
CYPRESS HILLS    N/A     57  25  28 SE6         N/A
VAL MARIE        N/A     46  34  61 NE5         N/A
ROCKGLEN         N/A     61  41  48 S5          N/A
ASSINIBOIA       N/A     52  43  71 NE7         N/A
$$



USA.gov is the U.S. government's official web portal to all federal, state and local government web resources and services.